When you browse on this site, cookies collect data to enhance your experience and personalize the content and advertising you see.
Visit our Privacy Policy to learn more. By continuing to use the site, you agree to this use of cookies and data.
  • In Belgium
  • List of Countries
  • For 7 days
  • Water Temperature
  • Satellite Maps
  • Weather Map
  • Weather Widgets
  • user-avatar
    Login

    Hourly Weather Lang Son

    Today, 18 November, Sunday

    Time Temperature Precipitation Wind Pressure Humidity
    00:00 +22°C° 0 mm 1 mps 733 mmHg 95%
    01:00 +20°C° 0 mm 0 mps 732 mmHg 97%
    02:00 +20°C° 0 mm 0 mps 732 mmHg 97%
    03:00 +20°C° 0 mm 0 mps 732 mmHg 97%
    04:00 +20°C° 0 mm 0 mps 732 mmHg 97%
    05:00 +20°C° 0 mm 0 mps 732 mmHg 96%
    06:00 +21°C° 0 mm 0 mps 733 mmHg 95%
    07:00 +22°C° 0 mm 1 mps 734 mmHg 93%
    08:00 +24°C° 0 mm 1 mps 734 mmHg 87%
    09:00 +25°C° 0 mm 1 mps 734 mmHg 82%
    10:00 +27°C° 0 mm 1 mps 735 mmHg 77%
    11:00 +27°C° 0.1 mm 1 mps 734 mmHg 76%
    12:00 +27°C° 0.1 mm 2 mps 734 mmHg 75%
    13:00 +28°C° 0 mm 2 mps 733 mmHg 75%
    14:00 +27°C° 0.4 mm 2 mps 733 mmHg 78%
    15:00 +27°C° 0.4 mm 2 mps 733 mmHg 81%
    16:00 +26°C° 0.4 mm 2 mps 732 mmHg 84%
    17:00 +25°C° 0.1 mm 2 mps 733 mmHg 87%
    18:00 +24°C° 0.1 mm 2 mps 733 mmHg 90%
    19:00 +23°C° 0.1 mm 2 mps 733 mmHg 93%
    20:00 +21°C° 0.1 mm 2 mps 734 mmHg 93%
    21:00 +21°C° 0.1 mm 2 mps 734 mmHg 93%
    22:00 +20°C° 0.1 mm 2 mps 734 mmHg 93%
    23:00 +20°C° 0 mm 2 mps 734 mmHg 92%

    Tomorrow, 19 November, Monday

    Time Temperature Precipitation Wind Pressure Humidity
    00:00 +19°C° 0 mm 2 mps 734 mmHg 91%
    01:00 +19°C° 0 mm 2 mps 734 mmHg 91%
    02:00 +18°C° 0 mm 2 mps 734 mmHg 90%
    03:00 +18°C° 0 mm 2 mps 734 mmHg 90%
    04:00 +18°C° 0 mm 2 mps 734 mmHg 90%
    05:00 +18°C° 0.1 mm 2 mps 734 mmHg 89%
    06:00 +18°C° 0.1 mm 2 mps 734 mmHg 89%
    07:00 +17°C° 0.1 mm 2 mps 735 mmHg 89%
    08:00 +18°C° 0.1 mm 2 mps 735 mmHg 87%
    09:00 +18°C° 0.1 mm 2 mps 736 mmHg 85%
    10:00 +19°C° 0.1 mm 2 mps 736 mmHg 83%
    11:00 +20°C° 0 mm 2 mps 736 mmHg 81%
    12:00 +21°C° 0 mm 2 mps 735 mmHg 79%
    13:00 +23°C° 0 mm 1 mps 735 mmHg 77%
    14:00 +23°C° 0 mm 1 mps 734 mmHg 77%
    15:00 +23°C° 0 mm 1 mps 734 mmHg 77%
    16:00 +23°C° 0 mm 1 mps 734 mmHg 78%
    17:00 +22°C° 0 mm 1 mps 734 mmHg 81%
    18:00 +21°C° 0 mm 1 mps 734 mmHg 85%
    19:00 +20°C° 0 mm 1 mps 734 mmHg 89%
    20:00 +20°C° 0 mm 1 mps 734 mmHg 89%
    21:00 +20°C° 0 mm 1 mps 735 mmHg 89%
    22:00 +20°C° 0 mm 1 mps 735 mmHg 89%
    23:00 +20°C° 0 mm 1 mps 735 mmHg 90%

    Day after tomorrow, 20 November, Tuesday

    Time Temperature Precipitation Wind Pressure Humidity
    00:00 +20°C° 0 mm 1 mps 734 mmHg 91%
    01:00 +20°C° 0 mm 1 mps 734 mmHg 92%
    02:00 +19°C° 0 mm 1 mps 734 mmHg 93%
    03:00 +19°C° 0 mm 1 mps 733 mmHg 94%
    04:00 +19°C° 0 mm 1 mps 733 mmHg 94%
    05:00 +20°C° 0 mm 1 mps 733 mmHg 94%
    06:00 +20°C° 0 mm 1 mps 733 mmHg 93%
    07:00 +18°C° 0 mm 0 mps 734 mmHg 93%
    08:00 +22°C° 0.1 mm 1 mps 734 mmHg 88%
    09:00 +24°C° 0.1 mm 1 mps 734 mmHg 83%
    10:00 +26°C° 0.1 mm 1 mps 735 mmHg 78%
    11:00 +26°C° 0.1 mm 1 mps 734 mmHg 77%
    12:00 +27°C° 0.1 mm 1 mps 733 mmHg 75%
    13:00 +28°C° 0.1 mm 1 mps 732 mmHg 74%
    14:00 +27°C° 0.1 mm 1 mps 732 mmHg 75%
    15:00 +27°C° 0.1 mm 1 mps 731 mmHg 77%
    16:00 +27°C° 0.1 mm 1 mps 731 mmHg 78%
    17:00 +26°C° 0.1 mm 1 mps 731 mmHg 83%
    18:00 +25°C° 0.1 mm 1 mps 732 mmHg 88%
    19:00 +24°C° 0.1 mm 1 mps 732 mmHg 93%
    20:00 +23°C° 0 mm 1 mps 732 mmHg 94%
    21:00 +23°C° 0 mm 1 mps 733 mmHg 95%
    22:00 +23°C° 0 mm 1 mps 733 mmHg 96%
    23:00 +23°C° 0 mm 1 mps 733 mmHg 96%

    21 November, Wednesday

    Time Temperature Precipitation Wind Pressure Humidity
    00:00 +22°C° 0 mm 1 mps 733 mmHg 97%
    01:00 +22°C° 0 mm 1 mps 733 mmHg 97%
    02:00 +22°C° 0 mm 1 mps 732 mmHg 97%
    03:00 +22°C° 0 mm 1 mps 732 mmHg 97%
    04:00 +22°C° 0 mm 1 mps 732 mmHg 97%
    05:00 +22°C° 0 mm 1 mps 732 mmHg 95%
    06:00 +23°C° 0 mm 1 mps 733 mmHg 94%
    07:00 +23°C° 0 mm 1 mps 733 mmHg 93%
    08:00 +25°C° 0 mm 1 mps 734 mmHg 86%
    09:00 +27°C° 0 mm 1 mps 734 mmHg 78%
    10:00 +28°C° 0 mm 1 mps 735 mmHg 71%
    11:00 +29°C° 0.1 mm 1 mps 734 mmHg 68%
    12:00 +30°C° 0.1 mm 1 mps 733 mmHg 65%
    13:00 +31°C° 0.1 mm 1 mps 732 mmHg 62%
    14:00 +30°C° 0.6 mm 1 mps 732 mmHg 66%
    15:00 +29°C° 0.6 mm 1 mps 732 mmHg 70%
    16:00 +28°C° 0.6 mm 1 mps 732 mmHg 74%
    17:00 +27°C° 0.8 mm 2 mps 732 mmHg 79%
    18:00 +25°C° 0.8 mm 2 mps 733 mmHg 85%
    19:00 +22°C° 0.8 mm 3 mps 734 mmHg 90%
    20:00 +21°C° 0.3 mm 4 mps 735 mmHg 89%
    21:00 +20°C° 0.3 mm 4 mps 735 mmHg 89%
    22:00 +19°C° 0.3 mm 4 mps 736 mmHg 88%
    23:00 +18°C° 0.1 mm 4 mps 736 mmHg 87%

    22 November, Thursday

    Time Temperature Precipitation Wind Pressure Humidity
    00:00 +18°C° 0.1 mm 4 mps 736 mmHg 86%
    01:00 +17°C° 0.1 mm 4 mps 736 mmHg 85%
    02:00 +17°C° 0 mm 4 mps 736 mmHg 84%
    03:00 +17°C° 0 mm 4 mps 736 mmHg 83%
    04:00 +17°C° 0 mm 4 mps 736 mmHg 82%
    05:00 +15°C° 0 mm 4 mps 736 mmHg 81%
    06:00 +15°C° 0 mm 4 mps 737 mmHg 81%
    07:00 +16°C° 0 mm 3 mps 737 mmHg 81%
    08:00 +17°C° 0 mm 3 mps 738 mmHg 76%
    09:00 +18°C° 0 mm 3 mps 738 mmHg 72%
    10:00 +19°C° 0 mm 3 mps 738 mmHg 68%
    11:00 +20°C° 0 mm 3 mps 738 mmHg 66%
    12:00 +21°C° 0 mm 3 mps 737 mmHg 64%
    13:00 +23°C° 0 mm 2 mps 736 mmHg 63%
    14:00 +23°C° 0 mm 2 mps 736 mmHg 64%
    15:00 +23°C° 0 mm 2 mps 735 mmHg 66%
    16:00 +23°C° 0 mm 1 mps 735 mmHg 67%
    17:00 +22°C° 0 mm 1 mps 735 mmHg 71%
    18:00 +21°C° 0 mm 1 mps 736 mmHg 75%
    19:00 +19°C° 0 mm 1 mps 736 mmHg 80%
    20:00 +19°C° 0 mm 1 mps 736 mmHg 80%
    21:00 +19°C° 0 mm 1 mps 737 mmHg 80%
    22:00 +19°C° 0 mm 1 mps 737 mmHg 80%
    23:00 +19°C° 0 mm 1 mps 737 mmHg 79%

    23 November, Friday

    Time Temperature Precipitation Wind Pressure Humidity
    00:00 +19°C° 0 mm 1 mps 737 mmHg 79%
    01:00 +19°C° 0 mm 1 mps 736 mmHg 79%
    02:00 +19°C° 0 mm 1 mps 736 mmHg 79%
    03:00 +19°C° 0 mm 1 mps 736 mmHg 79%
    04:00 +18°C° 0 mm 1 mps 736 mmHg 79%
    05:00 +18°C° 0 mm 1 mps 736 mmHg 79%
    06:00 +18°C° 0 mm 1 mps 737 mmHg 79%
    07:00 +18°C° 0 mm 1 mps 737 mmHg 79%
    08:00 +20°C° 0 mm 1 mps 737 mmHg 74%
    09:00 +21°C° 0 mm 2 mps 737 mmHg 69%
    10:00 +23°C° 0 mm 2 mps 738 mmHg 64%
    11:00 +24°C° 0 mm 2 mps 737 mmHg 62%
    12:00 +25°C° 0 mm 2 mps 736 mmHg 59%
    13:00 +27°C° 0 mm 2 mps 735 mmHg 57%
    14:00 +26°C° 0 mm 1 mps 734 mmHg 60%
    15:00 +26°C° 0 mm 1 mps 734 mmHg 62%
    16:00 +26°C° 0 mm 1 mps 734 mmHg 65%
    17:00 +24°C° 0 mm 1 mps 734 mmHg 70%
    18:00 +22°C° 0 mm 1 mps 734 mmHg 76%
    19:00 +21°C° 0 mm 1 mps 734 mmHg 81%
    20:00 +20°C° 0 mm 1 mps 734 mmHg 82%
    21:00 +18°C° 0 mm 0 mps 735 mmHg 84%
    22:00 +18°C° 0 mm 0 mps 735 mmHg 85%
    23:00 +17°C° 0 mm 0 mps 735 mmHg 86%
    Show more